FW7892 Weather Reports


time (UTC)temp
F
wind
direction
speed
knots
gust
knots
rain 1hr
in
rain 24hr
in
rain mn
in
humidity
%
barometer
mb
20260503032206 72 317 0.9 1.7 0.00 0.00 0.00 99 1011.3
20260503024207 72 317 0.9 1.7 0.00 0.00 0.00 99 1010.5
20260503023209 72 317 0.9 1.7 0.00 0.00 0.00 99 1010.6
20260503022203 71 319 1.7 4.3 0.00 0.00 0.00 99 1011.2
20260503015206 71 317 1.7 11.3 0.00 0.00 0.00 98 1011.1
20260503010204 74 224 2.6 4.3 0.00 0.00 0.00 99 1010.6
20260503005210 73 220 1.7 4.3 0.00 0.00 0.00 99 1010.5
20260503002203 74 228 2.6 7.0 0.00 0.00 0.00 84 1010.6
20260503000207 76 216 2.6 7.0 0.00 0.00 0.00 84 1010.9
20260502234211 73 199 4.3 7.0 0.00 0.00 0.00 98 1011.1
20260502233209 75 225 4.3 7.8 0.00 0.00 0.00 98 1011.4
20260502232207 75 215 4.3 7.8 0.00 0.00 0.00 98 1011.5
20260502231208 76 218 4.3 7.8 0.00 0.00 0.00 98 1011.5
20260502230209 72 210 5.2 7.8 0.00 0.00 0.00 86 1011.6
20260502225207 74 202 4.3 7.0 0.00 0.00 0.00 69 1011.8
20260502224207 75 206 4.3 7.8 0.00 0.00 0.00 82 1012.3
20260502222206 75 215 5.2 8.7 0.00 0.00 0.00 94 1013.4
20260502220210 82 214 5.2 8.7 0.00 0.00 0.00 78 1012.5
20260502215209 83 200 4.3 8.7 0.00 0.00 0.00 77 1012.2
20260502214214 83 195 4.3 11.3 0.00 0.00 0.00 77 1012.3
20260502212209 83 193 3.5 7.8 0.00 0.00 0.00 75 1011.9
20260502211205 84 188 4.3 7.8 0.00 0.00 0.00 74 1011.6
20260502210207 84 163 3.5 7.8 0.00 0.00 0.00 70 1011.6
20260502204207 83 179 1.7 6.1 0.00 0.00 0.00 67 1011.6
20260502202209 84 174 1.7 5.2 0.00 0.00 0.00 68 1011.6
20260502201213 84 172 1.7 6.1 0.00 0.00 0.00 68 1011.5
20260502194208 81 136 1.7 6.1 0.00 0.00 0.00 92 1011.4
20260502192212 72 115 1.7 4.3 0.00 0.00 0.00 71 1011.0
20260502191204 68 116 1.7 4.3 0.00 0.00 0.00 71 1011.5
20260502190208 80 103 1.7 2.6 0.00 0.00 0.00 72 1011.7
20260502185210 86 93 1.7 2.6 0.00 0.00 0.00 82 1011.9
20260502184205 86 127 0.9 2.6 0.00 0.00 0.00 98 1012.0
20260502183207 86 125 0.9 1.7 0.00 0.00 0.00 87 1012.0
20260502182213 86 96 0.9 4.3 0.00 0.00 0.00 71 1012.1
20260502181210 86 82 0.9 4.3 0.00 0.00 0.00 71 1012.2
20260502170210 68 90 0.9 0.9 0.00 0.00 0.00 80 1011.4
20260502163213 85 47 0.9 1.7 0.00 0.00 0.00 79 1012.1
20260502162204 85 62 0.0 1.7 0.00 0.00 0.00 77 1012.1
20260502161213 84 97 0.0 1.7 0.00 0.00 0.00 77 1011.3
20260502160206 78 80 0.0 1.7 0.00 0.00 0.00 77 1011.5
20260502151208 84 63 0.0 0.9 0.00 0.00 0.00 76 1011.9
20260502150208 84 64 0.0 0.9 0.00 0.00 0.00 76 1011.8
20260502123211 73 0 0.0 0.9 0.00 0.00 0.00 93 1010.8
20260502122214 72 346 0.0 0.9 0.00 0.00 0.00 94 1010.8
20260502120211 71 21 0.0 0.0 0.00 0.00 0.00 96 1010.1
20260502115215 70 5 0.0 0.0 0.00 0.00 0.00 96 1010.0
20260502114205 70 336 0.0 0.9 0.00 0.00 0.00 96 1010.1
20260502113211 70 335 0.0 0.9 0.00 0.00 0.00 97 1010.0
20260502111205 69 0 0.0 0.0 0.00 0.00 0.00 98 1009.7
20260502102206 68 243 0.0 0.9 0.00 0.00 0.00 98 1009.6
20260502101204 68 243 0.0 0.9 0.00 0.00 0.00 98 1009.6
20260502100209 68 280 0.0 0.9 0.00 0.00 0.00 98 1009.7
20260502071214 69 231 1.7 2.6 0.00 0.00 0.00 98 1010.2
20260502070215 69 227 1.7 2.6 0.00 0.00 0.00 98 1010.5
20260502064212 70 232 1.7 2.6 0.00 0.00 0.00 92 1010.9
20260502060211 69 232 1.7 2.6 0.00 0.00 0.00 95 1011.5
20260502052213 67 218 0.9 5.2 0.00 0.00 0.00 96 1012.1
20260502050209 68 208 0.9 4.3 0.00 0.00 0.00 95 1012.2
20260502045214 70 210 0.9 4.3 0.00 0.00 0.00 95 1012.3
20260502044211 67 216 1.7 4.3 0.00 0.00 0.00 90 1012.4
20260502042205 70 216 1.7 4.3 0.00 0.00 0.00 71 1012.4
20260502040209 71 201 1.7 4.3 0.00 0.00 0.00 94 1012.7
20260502035210 71 205 1.7 4.3 0.00 0.00 0.00 93 1012.7